"Pseudo-MPEC" for ZTB6694

Created 2018 Oct 12 22:18:25 UT using Find_Orb

Click here for an explanation of pseudo-MPECs

 
 Astrometry: 
     ZTB6694  C2018 10 05x:AstrometryLID)XoTiU](eXV4yF/Fu;G_nb-4x(2l.6j7n`l];F52
     ZTB6694  C2018 10 05)@ZbPH;vX;LM1uYr/WTv#b2mTZ-FrI)8]EB,:?UkkLVf+NO\K?D7F52
     ZTB6694  C2018 10 10.27501 01 48 20.25 +23 51 09.1          21.2 GVNEOCPG96
     ZTB6694  C2018 10 10.28017 01 48 19.69 +23 51 09.3          21.5 GVNEOCPG96
     ZTB6694  C2018 10 10.28533 01 48 19.13 +23 51 08.7          21.4 GVNEOCPG96
     ZTB6694  C2018 10 10.29048 01 48 18.62 +23 51 08.3          21.4 GVNEOCPG96
     ZTB6694  C2018 10 102xrtxjC\\Z'$@Bw^QBO#xobE$bJCa094*lX'N:;Ur\Qp@)lJ`EsIV06
     ZTB6694  C2018 10 10%r'hC%)95BMs4+Tyorq+#AL`4PG3IJ8BQZ?V=XE`_rNDLECvqn'tV06
     ZTB6694  C2018 10 106-[$7\ka,)]]dVn'h9A'2JK8oHhfJ:,1u0IW!d=_!!#WI^ybZZN^V06
     ZTB6694  C2018 10 10+ASS/sIYgVkc@:tvXredacted;8[Ym8jviXVIa:.(G;7tdKbtp%oV06
     ZTB6694 KC2018 10 100SkBk!8rk.n4A%](sEdu`!I$eSvjH`xm(CM)\EtDm.erEGFj1u*gK88
     ZTB6694 KC2018 10 10DcG0DT*R13v^p2]EVPSv#SCIw/x(PBkw,aAa%m6miN=U1b2;pbI_K88
     ZTB6694 KC2018 10 10AFn?(xbMvHhq/mQW]DebVPJBlt*0Ci,D8K6g.f6v^yjiV'4WmPgCK88
     ZTB6694  C2018 10 11T/5Omr\,pNWw?y_+5[C4KgE-!+iw_Rg4Ega[M1d^b)]Ghr)fa.S,H01
     ZTB6694  C2018 10 11;.bo9Qmx]Zg(G(=N9'20p#SB,s)oLi04seeQM\M%?-F!.N?\BFnxH01
     ZTB6694  C2018 10 111!ab7DW=4AQeG$N]A[*wC2%TN,'F.E-J\,'ytHP9J.;xF74*4W*7H01
     ZTB6694  C2018 10 11KF?WNe?sMi0YJ/Ss:lwbuHy/R3AI=Xt=w+k%?iHOs8UF,C/dW=(dH01
     ZTB6694 KC2018 10 11P#3G5-fld(q)r@2t9$*_1`\@$TQA6;K9NLN5j:(Twy7osICfN'%9L01
     ZTB6694 KC2018 10 11gaYk0fRL7lTctj.irbfKT5y#Xe+:ED[,W'HBmUH_!ul0dM*D'?w^L01
     ZTB6694 KC2018 10 11RDlaBMnTpBKjaLFcmN@e!Kc(j`fv#0hSpf-$])ZbMAis_kfNEOCPL01

Station data:
(F52) Pan-STARRS 2, Haleakala  (N20.707384 W156.255910)  US/Hawaii.
(G96) Mt. Lemmon Survey  (N32.442754 W110.788720)  US/Arizona.  Observers B.
   M. Africano, E. J. Christensen, D. C. Fuls, A. R. Gibbs, A. D. Grauer, J.
   A. Johnson, R. A. Kowalski, S. M. Larson, G. J. Leonard, R. L. Seaman, F.
   C. Shelly. 1.5-m reflector + 10K CCD.
(H01) Magdalena Ridge Observatory, Socorro  (N33.984833 W107.189333)  US/New
   Mexico.  Observers W. H. Ryan, E. V. Ryan. Measurer W. H. Ryan. 2.4-m
   f/8.9 reflector + CCD.
(K88) GINOP-KHK, Piszkéstető  (N47.917622 E19.893600)  Hungary.  Observer K.
   Sárneczky. 0.60-m Schmidt + CCD.
(L01) Višnjan Observatory, Tičan  (N45.290900 E13.749300)  Croatia.  Observer
   K. Korlević. 1.0-m f/2.9 reflector + CCD.
(V06) Catalina Sky Survey-Kuiper  (N32.416847 W110.732550)  US/Arizona.
   Observers B. M. Africano, E. J. Christensen, D. C. Fuls, A. R. Gibbs, A.
   D. Grauer, J. A. Johnson, R. A. Kowalski, S. M. Larson, G. J. Leonard, R.
   L. Seaman, F. C. Shelly. 1.55-m reflector + CCD.

Orbital elements:  ZTB6694
   Perihelion 2019 Mar 27.078003 +/- 0.624 TT =  1:52:19 (JD 2458569.578003)
Epoch 2018 Oct 11.0 TT = JDT 2458402.5   Earth MOID: 0.1950   Ve: 0.0997
M 296.16211 +/- 1.0                 (J2000 ecliptic)          AutoNEOCP
n   0.38208433 +/- 0.00478          Peri.  179.19624 +/- 0.30
a   1.88088925 +/- 0.0157           Node   351.01768 +/- 0.38
e   0.7057973 +/- 0.00583           Incl.   11.43118 +/- 0.12
P   2.58/942.18d           H 18.7   G  0.15   U  9.2  
q 0.55336264 +/- 0.0063    Q 3.20841586 +/- 0.0373
From 20 observations 2018 Oct. 5-11; mean residual 0".18
Residuals in arcseconds: 
181005 F52  .17-  .03-    181010 V06  .14+  .07-    181011 H01  .10-  .01+    
181005 F52  .15+  .05+    181010 V06  .07-  .06-    181011 H01  .13-  .08+    
181010 G96  .18+  .38-    181010 V06  .14-  .15-    181011 H01  .02-  .08-    
181010 G96  .07+  .18+    181010 K88  .22-  .39+    181011 L01  .17+  .09-    
181010 G96  .04-  .06-    181010 K88  .34-  .20+    181011 L01  .34+  .07-    
181010 G96  .52+  .11-    181010 K88  .18-  .32+    181011 L01  .07-  .13-    
181010 V06  .07+  .07-    181011 H01  .11-  .05-    

Ephemerides (geocentric):
Date (UTC) HH   RA              Dec         delta   r     elong  mag " sig PA
---- -- -- --  -------------   -----------  ------ ------ -----  --- ---- ---
2018 10 12 22  01 43 36.252   +23 46 49.41  1.1989 2.1700 162.0 21.4  .42   1
2018 10 12 23  01 43 31.645   +23 46 44.20  1.1985 2.1696 162.0 21.4  .44   1
2018 10 13 00  01 43 27.033   +23 46 38.96  1.1980 2.1693 162.1 21.4  .45   1
2018 10 13 01  01 43 22.418   +23 46 33.68  1.1976 2.1690 162.1 21.4  .46   1
2018 10 13 02  01 43 17.798   +23 46 28.37  1.1972 2.1687 162.1 21.4  .47   1
2018 10 13 03  01 43 13.175   +23 46 23.02  1.1968 2.1684 162.2 21.4  .49   0
2018 10 13 04  01 43 08.548   +23 46 17.64  1.1964 2.1681 162.2 21.4  .50   0
2018 10 13 05  01 43 03.917   +23 46 12.23  1.1959 2.1678 162.3 21.4  .51   0
2018 10 13 06  01 42 59.282   +23 46 06.78  1.1955 2.1675 162.3 21.4  .52   0
2018 10 13 07  01 42 54.643   +23 46 01.29  1.1951 2.1671 162.3 21.4  .54   0
2018 10 13 08  01 42 50.000   +23 45 55.77  1.1947 2.1668 162.4 21.4  .55 179
2018 10 13 09  01 42 45.354   +23 45 50.22  1.1943 2.1665 162.4 21.3  .56 179
2018 10 13 10  01 42 40.703   +23 45 44.63  1.1939 2.1662 162.5 21.3  .58 179
2018 10 13 11  01 42 36.049   +23 45 39.01  1.1934 2.1659 162.5 21.3  .59 179
2018 10 13 12  01 42 31.391   +23 45 33.36  1.1930 2.1656 162.5 21.3  .60 179
2018 10 13 13  01 42 26.729   +23 45 27.66  1.1926 2.1653 162.6 21.3  .62 179
2018 10 13 14  01 42 22.063   +23 45 21.94  1.1922 2.1650 162.6 21.3  .63 178
2018 10 13 15  01 42 17.393   +23 45 16.18  1.1918 2.1646 162.6 21.3  .65 178
2018 10 13 16  01 42 12.720   +23 45 10.38  1.1914 2.1643 162.7 21.3  .66 178
2018 10 13 17  01 42 08.043   +23 45 04.55  1.1910 2.1640 162.7 21.3  .67 178
2018 10 13 18  01 42 03.362   +23 44 58.69  1.1905 2.1637 162.8 21.3  .69 178
2018 10 13 19  01 41 58.677   +23 44 52.79  1.1901 2.1634 162.8 21.3  .70 177
2018 10 13 20  01 41 53.988   +23 44 46.86  1.1897 2.1631 162.8 21.3  .72 177
2018 10 13 21  01 41 49.296   +23 44 40.89  1.1893 2.1628 162.9 21.3  .73 177
2018 10 13 22  01 41 44.599   +23 44 34.88  1.1889 2.1624 162.9 21.3  .75 177
2018 10 13 23  01 41 39.899   +23 44 28.84  1.1885 2.1621 162.9 21.3  .76 177
2018 10 14 00  01 41 35.196   +23 44 22.77  1.1881 2.1618 163.0 21.3  .78 177
2018 10 14 01  01 41 30.488   +23 44 16.66  1.1877 2.1615 163.0 21.3  .79 176
2018 10 14 02  01 41 25.777   +23 44 10.52  1.1873 2.1612 163.1 21.3  .81 176
2018 10 14 03  01 41 21.062   +23 44 04.34  1.1869 2.1609 163.1 21.3  .82 176
2018 10 14 04  01 41 16.343   +23 43 58.13  1.1865 2.1606 163.1 21.3  .84 176
2018 10 14 05  01 41 11.620   +23 43 51.88  1.1860 2.1603 163.2 21.3  .86 176
2018 10 14 06  01 41 06.894   +23 43 45.60  1.1856 2.1599 163.2 21.3  .87 176
2018 10 14 07  01 41 02.164   +23 43 39.28  1.1852 2.1596 163.2 21.3  .89 176
2018 10 14 08  01 40 57.430   +23 43 32.93  1.1848 2.1593 163.3 21.3  .90 175
2018 10 14 09  01 40 52.693   +23 43 26.54  1.1844 2.1590 163.3 21.3  .92 175
2018 10 14 10  01 40 47.952   +23 43 20.12  1.1840 2.1587 163.3 21.3  .94 175
2018 10 14 11  01 40 43.207   +23 43 13.66  1.1836 2.1584 163.4 21.3  .95 175
2018 10 14 12  01 40 38.459   +23 43 07.17  1.1832 2.1581 163.4 21.3  .97 175
2018 10 14 13  01 40 33.707   +23 43 00.64  1.1828 2.1577 163.5 21.3  .99 175
2018 10 14 14  01 40 28.951   +23 42 54.08  1.1824 2.1574 163.5 21.3  1.0 174
2018 10 14 15  01 40 24.192   +23 42 47.48  1.1820 2.1571 163.5 21.3  1.0 174
2018 10 14 16  01 40 19.428   +23 42 40.85  1.1816 2.1568 163.6 21.3  1.0 174
2018 10 14 17  01 40 14.662   +23 42 34.18  1.1812 2.1565 163.6 21.3  1.1 174
2018 10 14 18  01 40 09.891   +23 42 27.48  1.1808 2.1562 163.6 21.3  1.1 174
2018 10 14 19  01 40 05.117   +23 42 20.74  1.1804 2.1558 163.7 21.3  1.1 174
2018 10 14 20  01 40 00.340   +23 42 13.97  1.1800 2.1555 163.7 21.3  1.1 173
2018 10 14 21  01 39 55.558   +23 42 07.16  1.1796 2.1552 163.7 21.3  1.1 173